sat.trackr.live / text

‹ back to catalog

STARLINK-30554

NORAD 58048 · 2023-156W

PAYLOAD ACTIVE UNKNOWN

§ Identity

Operator
Country
US
Launch date
2023-10-09
Launch site
AFWTR
Launch vehicle
Mass (kg)
RCS (m²)

Purposes: comms

External: N2YO · Heavens-Above · Gunter

§ Orbital elements

Epoch: 2026-09-20T22:29:38.020704Z

Period
93.85 min
Inclination
53.1585°
Eccentricity
0.0001550
Mean motion
15.34389204 rev/d
Perigee alt
461.7 km
Apogee alt
463.8 km
Semi-major
6,840.9 km
B*
5.5639e-5
RAAN
339.3316°
Arg perigee
100.0964°
Mean anomaly
260.0214°
Rev number
16,490

§ Raw data

STARLINK-305541 58048U 23156W   26263.93724561  .00001503  00000+0  55639-4 0  99982 58048  53.1585 339.3316 0001550 100.0964 260.0214 15.34389204164907

JSON: /api/v1/satellites/58048 · /tle

For live sub-satellite position, see the globe view (requires WebGL).

§ Visibility from observer

Set your observer location to see the next 7 days of passes ≥ 10°. The values pass through the URL so the page stays shareable.

No JS? Fill the form by hand. The geolocation button needs JavaScript.